Waarnemingen

Advertentie
Mijn weer
Elsenborn, België (6496): temperatuur & dauwpunt: 12.10.2017 05:00:00 - 18.10.2017 05:00:00 (CEST)Elsenborn, België (6496): windsnelheid & windstoten: 12.10.2017 05:00:00 - 18.10.2017 05:00:00 (CEST)Elsenborn, België (6496): windrichting: 12.10.2017 05:00:00 - 18.10.2017 05:00:00 (CEST)Elsenborn, België (6496): luchtdruk: 12.10.2017 05:00:00 - 18.10.2017 05:00:00 (CEST)Elsenborn, België (6496): zicht: 12.10.2017 05:00:00 - 18.10.2017 05:00:00 (CEST)
Datum & Tijd tt [°C] td [°C] ff [km/u] ff [kn] fx [km/u] fx [kn] dd ppp [hPa] vv [km]
18.10.2017 05:00:00 5,0 4,9 8 4 - - NW 1017,6 2,1
18.10.2017 04:00:00 4,3 4,0 5 3 11 6 ZW 1018,1 5
18.10.2017 03:00:00 4,6 4,5 2 1 0 0 - 1018,7 0,3
18.10.2017 02:00:00 5,5 5,4 2 1 - - - 1018,8 0,7
18.10.2017 01:00:00 6,9 6,9 2 1 7 4 - 1019,0 0,1
18.10.2017 00:00:00 6,9 6,8 2 1 0 0 - 1019,3 0,1
17.10.2017 23:00:00 8,1 8,0 2 1 - - - 1019,7 0,6
17.10.2017 22:00:00 8,3 8,2 2 1 7 4 - 1020,0 0,2
17.10.2017 21:00:00 10,9 10,8 5 3 7 4 ZO 1019,5 1,5
17.10.2017 20:00:00 11,5 10,9 4 2 - - - 1019,7 0,3
17.10.2017 19:00:00 13,8 13,1 5 3 4 2 ZO 1019,2 3,3
17.10.2017 18:00:00 16,5 13,9 4 2 7 4 - 1018,8 10
17.10.2017 17:00:00 17,5 13,8 4 2 - - - 1019,2 10
17.10.2017 16:00:00 17,7 13,4 5 3 11 6 WZW 1019,6 10
17.10.2017 15:00:00 18,0 12,8 5 3 14 8 ZZW 1019,8 10
17.10.2017 14:00:00 17,6 13,2 8 4 - - ZZW 1020,8 10
17.10.2017 13:00:00 16,1 12,9 9 5 14 8 ZW 1021,8 10
17.10.2017 12:00:00 15,1 12,6 5 3 11 6 ZW 1022,5 10
17.10.2017 11:00:00 12,6 11,6 2 1 - - - 1023,2 10
17.10.2017 10:00:00 9,1 8,8 4 2 4 2 - 1024,2 4,8
17.10.2017 09:00:00 6,9 6,7 2 1 4 2 - 1024,9 4,8
17.10.2017 08:00:00 7,0 6,7 2 1 - - - 1024,5 4,6
17.10.2017 07:00:00 7,4 7,1 2 1 4 2 - 1024,7 3,0
17.10.2017 06:00:00 8,8 8,2 2 1 4 2 - 1024,2 3,4
17.10.2017 05:00:00 9,0 8,4 2 1 - - - 1024,0 0,9
17.10.2017 04:00:00 10,1 9,3 4 2 11 6 - 1023,7 7
17.10.2017 03:00:00 11,8 9,5 8 4 14 8 ZZW 1023,2 10
17.10.2017 02:00:00 13,8 9,9 8 4 - - ZW 1022,8 10
17.10.2017 01:00:00 14,4 9,7 13 7 25 14 ZZW 1022,7 10
17.10.2017 00:00:00 14,8 9,8 11 6 22 12 ZZW 1023,0 10
16.10.2017 23:00:00 14,6 10,3 13 7 - - Z 1022,8 10
16.10.2017 22:00:00 14,9 10,5 8 4 25 14 ZW 1022,8 10
16.10.2017 21:00:00 15,6 10,5 11 6 25 14 Z 1022,5 10
16.10.2017 20:00:00 15,5 11,6 5 3 - - ZZW 1022,7 10
16.10.2017 19:00:00 16,4 11,6 8 4 22 12 Z 1022,2 10
16.10.2017 18:00:00 18,3 11,8 16 9 25 14 Z 1021,7 10
16.10.2017 17:00:00 20,7 11,3 15 8 - - Z 1021,2 10
16.10.2017 16:00:00 21,6 11,6 11 6 25 14 Z 1021,2 10
16.10.2017 15:00:00 21,6 13,0 16 9 29 16 Z 1021,7 10
16.10.2017 14:00:00 21,5 12,9 11 6 - - Z 1022,2 10
16.10.2017 13:00:00 20,3 13,2 13 7 25 14 ZZW 1023,1 10
16.10.2017 12:00:00 18,7 12,7 8 4 14 8 ZZW 1023,5 10
16.10.2017 11:00:00 16,3 12,0 5 3 - - ZW 1024,2 10
16.10.2017 10:00:00 14,6 11,5 5 3 14 8 ZZW 1024,5 10
16.10.2017 09:00:00 11,6 10,5 8 4 11 6 ZZW 1025,0 10
16.10.2017 08:00:00 10,8 10,1 5 3 - - ZW 1024,7 8
16.10.2017 07:00:00 9,8 9,6 4 2 18 10 - 1024,9 4,0
16.10.2017 06:00:00 10,9 10,4 4 2 11 6 - 1024,2 7
16.10.2017 05:00:00 11,5 10,6 8 4 - - ZZW 1024,2 6
16.10.2017 04:00:00 12,3 11,0 9 5 14 8 ZZW 1024,2 10
16.10.2017 03:00:00 12,6 11,2 8 4 14 8 ZZW 1024,5 10
16.10.2017 02:00:00 12,6 11,2 5 3 - - W 1024,5 7
16.10.2017 01:00:00 11,8 10,9 5 3 11 6 ZW 1024,7 8
16.10.2017 00:00:00 9,9 9,8 4 2 14 8 - 1025,5 1,1
15.10.2017 23:00:00 11,7 10,5 4 2 - - - 1024,9 4,3
15.10.2017 22:00:00 13,1 11,6 8 4 18 10 ZZW 1024,2 10
15.10.2017 21:00:00 11,3 10,6 5 3 7 4 WZW 1024,5 10
15.10.2017 20:00:00 12,8 11,1 4 2 - - - 1024,0 10
15.10.2017 19:00:00 15,1 11,8 8 4 22 12 ZW 1023,3 10
15.10.2017 18:00:00 17,4 11,2 9 5 18 10 ZZW 1022,5 10
15.10.2017 17:00:00 19,2 11,2 9 5 - - Z 1022,0 10
15.10.2017 16:00:00 20,3 10,7 13 7 29 16 ZZW 1021,7 10
15.10.2017 15:00:00 20,2 9,7 11 6 25 14 Z 1022,2 10
15.10.2017 14:00:00 19,7 10,4 13 7 - - Z 1022,8 10
15.10.2017 13:00:00 18,5 10,8 9 5 22 12 ZZW 1023,7 10
15.10.2017 12:00:00 16,8 10,7 9 5 22 12 ZZW 1024,5 10
15.10.2017 11:00:00 15,3 11,1 9 5 - - ZZW 1025,0 10
15.10.2017 10:00:00 13,6 11,5 8 4 14 8 ZZW 1025,7 10
15.10.2017 09:00:00 11,2 10,6 9 5 14 8 Z 1026,2 9
15.10.2017 08:00:00 10,1 9,7 5 3 - - Z 1026,2 3,5
15.10.2017 07:00:00 8,1 7,9 4 2 7 4 - 1027,0 0,1
15.10.2017 06:00:00 8,7 8,4 4 2 7 4 - 1026,7 0,2
15.10.2017 05:00:00 9,2 9,0 5 3 - - W 1026,7 0,7
15.10.2017 04:00:00 8,5 8,4 5 3 11 6 NW 1026,9 0,3
15.10.2017 03:00:00 5,6 5,6 2 1 4 2 - 1028,0 0,2
15.10.2017 02:00:00 6,1 6,1 2 1 - - - 1028,2 0,1
15.10.2017 01:00:00 8,4 8,4 4 2 4 2 - 1028,0 0,4
15.10.2017 00:00:00 8,6 8,2 2 1 7 4 - 1028,2 3,1
14.10.2017 23:00:00 9,1 8,7 2 1 - - - 1028,2 3,7
14.10.2017 22:00:00 7,6 7,4 5 3 11 6 Z 1028,7 10
14.10.2017 21:00:00 9,7 9,3 5 3 7 4 ZZO 1028,5 10
14.10.2017 20:00:00 10,9 10,1 2 1 - - - 1028,4 10
14.10.2017 19:00:00 13,4 11,7 5 3 11 6 ZZW 1027,0 10
14.10.2017 18:00:00 17,1 12,1 5 3 14 8 ZZW 1026,0 10
14.10.2017 17:00:00 18,3 12,8 8 4 - - ZZW 1025,9 10
14.10.2017 16:00:00 18,2 12,5 9 5 22 12 ZW 1026,2 10
14.10.2017 15:00:00 17,5 11,8 13 7 22 12 Z 1026,5 10
14.10.2017 14:00:00 17,5 12,4 9 5 - - ZZW 1026,7 10
14.10.2017 13:00:00 16,7 12,6 9 5 14 8 ZZW 1027,5 10
14.10.2017 12:00:00 15,8 12,3 9 5 14 8 WZW 1028,0 10
14.10.2017 11:00:00 14,4 12,5 5 3 - - ZZW 1028,4 10
14.10.2017 10:00:00 10,8 10,8 4 2 7 4 - 1029,0 9
14.10.2017 09:00:00 7,1 7,1 2 1 4 2 - 1029,4 0,1
14.10.2017 08:00:00 6,8 6,7 2 1 - - - 1029,2 5
14.10.2017 07:00:00 6,6 6,6 0 0 7 4 N 1029,0 0,2
14.10.2017 06:00:00 8,1 8,1 4 2 7 4 - 1028,5 0,3
14.10.2017 05:00:00 9,1 9,1 2 1 - - - 1028,5 0,1
14.10.2017 04:00:00 9,3 9,3 2 1 7 4 - 1028,7 -
14.10.2017 03:00:00 10,4 10,1 2 1 7 4 - 1028,5 0,1
14.10.2017 02:00:00 11,6 11,6 4 2 - - - 1028,0 4,6
14.10.2017 01:00:00 11,1 11,1 5 3 7 4 ZZW 1028,0 3,2
14.10.2017 00:00:00 11,3 11,2 2 1 4 2 - 1027,7 4,6
13.10.2017 23:00:00 11,3 10,8 2 1 - - - 1027,5 0,6
13.10.2017 22:00:00 12,1 11,8 8 4 11 6 ZZW 1027,0 7
13.10.2017 21:00:00 12,3 11,7 5 3 11 6 ZZW 1027,0 10
13.10.2017 20:00:00 13,5 11,9 5 3 - - ZZW 1026,7 10
13.10.2017 19:00:00 13,8 12,0 9 5 14 8 WZW 1026,5 10
13.10.2017 18:00:00 14,3 12,1 9 5 25 14 WZW 1026,2 10
13.10.2017 17:00:00 15,3 12,1 15 8 - - WZW 1025,7 10
13.10.2017 16:00:00 15,1 11,7 18 10 32 18 W 1026,0 10
13.10.2017 15:00:00 15,1 12,7 15 8 29 16 ZW 1025,9 10
13.10.2017 14:00:00 14,8 13,2 15 8 - - WZW 1026,2 10
13.10.2017 13:00:00 13,6 13,0 13 7 22 12 WZW 1026,5 10
13.10.2017 12:00:00 13,6 13,0 13 7 25 14 WZW 1026,4 10
13.10.2017 11:00:00 12,8 12,7 13 7 - - ZW 1026,5 10
13.10.2017 10:00:00 12,4 12,4 13 7 22 12 WZW 1026,2 5
13.10.2017 09:00:00 11,8 11,8 9 5 18 10 WZW 1026,0 0,6
13.10.2017 08:00:00 11,6 11,6 11 6 - - ZW 1025,5 1,2
13.10.2017 07:00:00 11,3 11,3 11 6 18 10 ZW 1025,4 4,0
13.10.2017 06:00:00 10,8 10,6 8 4 14 8 ZW 1025,7 4,9
13.10.2017 05:00:00 11,0 10,6 8 4 - - ZZW 1025,5 9
13.10.2017 04:00:00 11,0 10,7 9 5 18 10 WZW 1025,5 9
13.10.2017 03:00:00 10,5 10,1 11 6 25 14 W 1025,7 10
13.10.2017 02:00:00 10,8 9,9 13 7 - - WZW 1025,5 10
13.10.2017 01:00:00 10,5 9,1 11 6 18 10 ZW 1025,4 10
13.10.2017 00:00:00 9,6 8,2 2 1 7 4 - 1025,7 10
12.10.2017 23:00:00 9,1 7,6 4 2 - - - 1025,9 10
12.10.2017 22:00:00 8,4 7,2 5 3 14 8 W 1026,0 10
12.10.2017 21:00:00 9,2 7,7 8 4 11 6 ZW 1025,7 10
12.10.2017 20:00:00 9,8 7,7 9 5 - - ZW 1025,2 10
12.10.2017 19:00:00 10,5 7,7 5 3 18 10 WZW 1025,0 10
12.10.2017 18:00:00 12,4 7,3 11 6 36 19 WZW 1024,0 10
12.10.2017 17:00:00 13,2 6,8 22 12 - - WZW 1023,5 10
12.10.2017 16:00:00 13,0 6,7 16 9 32 18 W 1023,3 10
12.10.2017 15:00:00 13,1 6,8 16 9 40 21 W 1023,2 10
12.10.2017 14:00:00 12,5 6,4 22 12 - - W 1023,5 10
12.10.2017 13:00:00 12,1 5,9 24 13 43 23 W 1023,1 10
12.10.2017 12:00:00 11,6 6,7 18 10 36 19 W 1022,8 10
12.10.2017 11:00:00 10,7 7,1 16 9 - - W 1022,5 10
12.10.2017 10:00:00 10,1 7,5 21 11 32 18 W 1021,6 10
12.10.2017 09:00:00 9,8 8,2 15 8 40 21 W 1020,6 10
12.10.2017 08:00:00 10,3 8,5 21 11 - - W 1019,3 10
12.10.2017 07:00:00 11,2 9,7 21 11 47 25 W 1018,2 10
12.10.2017 06:00:00 11,3 10,4 18 10 43 23 W 1017,1 10
12.10.2017 05:00:00 11,3 10,9 16 9 - - W 1016,5 1,4

tt = temperatuur
td = dauwpunt
ff = windsnelheid
fx = windstoten
dd = windrichting
ppp = luchtdruk
vv = zicht

Weerstations in de omgeving